Location: Follega
(52.8850°N, 5.7362°E)
Time: 21:52:11
(UTC+00:00)

STARLINK-1236 - Pass Details

Date: 03 October 2020
Orbit: 548 x 551 km, 53.0° (Epoch: 26 October)

Event Time Altitude Azimuth Distance (km) Brightness Sun altitude
Exits shadow 04:39:11 15° 263° (W) 1,548 5.2 -10.4°
Maximum altitude 04:41:37 24° 218° (SW) 1,160 4.9 -10.0°
Drops below altitude 10° 04:44:59 10° 164° (SSE) 1,822 6.4 -9.5°
Sets 04:47:30 0° 150° (SSE) 2,713 7.5 -9.1°
